ROMMA est une association bénévole à but non lucratif. Votre soutien est indispensable : ADHERER à ROMMA ou FAIRE un DON

Le Versoud - (38, Isère)

Vallée du Grésivaudan (220 m)   Longitude: 05° 51' 44" E   Latitude: 45° 13' 06" N Station partenaire n°6
 

Détail journalier du     <<     >>

Température Precipitation Humidité Pression Vent Dir Rafale Dir. rafale Ensol.
Heure (°C) (mm) (%) (hPa) (km/h) (km/h) (min)
01:00 5.6080102500---0
02:00 5.2082102500---0
03:00 5.8080102500---0
04:00 4.2086102500---0
05:00 4.2084102500---0
06:00 5.3082102600---0
07:00 4.6086102500---0
08:00 5.4082102600---5
09:00 6.9081102700---0
10:00 7.3077102700---0
11:00 9.7067102702N0
12:00 11.5058102702N5
13:00 12.2056102706N0
14:00 11.9063102608NNO0
15:00 11.60.267102706O0
16:00 11.0077102700---0
17:00 10.9079102702O0
18:00 10.7081102600---0
19:00 10.3082102702O0
20:00 9.6087102708NE0
21:00 8.7089102702ENE0
22:00 8.9090102700---0
23:00 8.3091102600---0
minuit 8.9090102702ENE0

Graphique du 09-03-2019

 

Serveur OMMA